owner,sensor,date,latitude,longitude,vertical_datum,direction_of_sea_water_velocity,sea_water_speed,upward_sea_water_velocity,qcFlag 
TABS,ioos:station:wmo:42045:1,2017-09-01T00:00:00Z,26.2168,-96.4998,2.0,49.61644653,18.27435361,-99999.0,'11111222,11111222,99999999' 
TABS,ioos:station:wmo:42045:1,2017-09-01T00:30:00Z,26.2168,-96.4998,2.0,37.51833633,18.02915417,-99999.0,'11111222,11111222,99999999' 
TABS,ioos:station:wmo:42045:1,2017-09-01T01:00:00Z,26.2168,-96.4998,2.0,24.37145196,18.92653428,-99999.0,'11111222,11111222,99999999' 
TABS,ioos:station:wmo:42045:1,2017-09-01T01:30:00Z,26.2168,-96.4998,2.0,27.57399331,15.7488317,-99999.0,'11111222,11111222,99999999' 
TABS,ioos:station:wmo:42045:1,2017-09-01T02:00:00Z,26.2168,-96.4998,2.0,28.91465974,21.05462657,-99999.0,'11111222,11111222,99999999' 
TABS,ioos:station:wmo:42045:1,2017-09-01T02:30:00Z,26.2168,-96.4998,2.0,23.87350001,22.1883866,-99999.0,'11111222,11111222,99999999' 
TABS,ioos:station:wmo:42045:1,2017-09-01T03:00:00Z,26.2168,-96.4998,2.0,25.69506876,27.97643651,-99999.0,'11111222,11111222,99999999' 
TABS,ioos:station:wmo:42045:1,2017-09-01T03:30:00Z,26.2168,-96.4998,2.0,30.55588091,26.73216228,-99999.0,'11111222,11111222,99999999' 
TABS,ioos:station:wmo:42045:1,2017-09-01T04:00:00Z,26.2168,-96.4998,2.0,38.91956535,29.63896085,-99999.0,'11111222,11111222,99999999' 
TABS,ioos:station:wmo:42045:1,2017-09-01T04:30:00Z,26.2168,-96.4998,2.0,47.14821164,28.86316857,-99999.0,'11111222,11111222,99999999' 
TABS,ioos:station:wmo:42045:1,2017-09-01T05:00:00Z,26.2168,-96.4998,2.0,56.12018651,35.1598649,-99999.0,'11111222,11111222,99999999' 
TABS,ioos:station:wmo:42045:1,2017-09-01T05:30:00Z,26.2168,-96.4998,2.0,60.85281097,35.43741102,-99999.0,'11111222,11111222,99999999' 
TABS,ioos:station:wmo:42045:1,2017-09-01T06:00:00Z,26.2168,-96.4998,2.0,60.78178043,35.35883482,-99999.0,'11111222,11111222,99999999' 
TABS,ioos:station:wmo:42045:1,2017-09-01T06:30:00Z,26.2168,-96.4998,2.0,65.75855036,36.07060022,-99999.0,'11111222,11111222,99999999' 
TABS,ioos:station:wmo:42045:1,2017-09-01T07:00:00Z,26.2168,-96.4998,2.0,61.96039921,33.88765262,-99999.0,'11111222,11111222,99999999' 
TABS,ioos:station:wmo:42045:1,2017-09-01T07:30:00Z,26.2168,-96.4998,2.0,63.09264042,34.42711722,-99999.0,'11111222,11111222,99999999' 
TABS,ioos:station:wmo:42045:1,2017-09-01T08:00:00Z,26.2168,-96.4998,2.0,61.76749665,36.42308334,-99999.0,'11111222,11111222,99999999' 
TABS,ioos:station:wmo:42045:1,2017-09-01T08:30:00Z,26.2168,-96.4998,2.0,58.47194611,38.30435223,-99999.0,'11111222,11111222,99999999' 
TABS,ioos:station:wmo:42045:1,2017-09-01T09:00:00Z,26.2168,-96.4998,2.0,61.05713416,38.37266345,-99999.0,'11111222,11111222,99999999' 
TABS,ioos:station:wmo:42045:1,2017-09-01T09:30:00Z,26.2168,-96.4998,2.0,61.96955228,39.34530468,-99999.0,'11111222,11111222,99999999' 
TABS,ioos:station:wmo:42045:1,2017-09-01T10:00:00Z,26.2168,-96.4998,2.0,65.06829421,37.81385593,-99999.0,'11111222,11111222,99999999' 
TABS,ioos:station:wmo:42045:1,2017-09-01T10:30:00Z,26.2168,-96.4998,2.0,67.97493107,37.57202417,-99999.0,'11111222,11111222,99999999' 
TABS,ioos:station:wmo:42045:1,2017-09-01T11:00:00Z,26.2168,-96.4998,2.0,69.07637689,37.9420097,-99999.0,'11111222,11111222,99999999' 
TABS,ioos:station:wmo:42045:1,2017-09-01T11:30:00Z,26.2168,-96.4998,2.0,73.88140823,14.08364299,-99999.0,'11111222,11111222,99999999' 
TABS,ioos:station:wmo:42045:1,2017-09-01T12:00:00Z,26.2168,-96.4998,2.0,72.91950412,30.36951267,-99999.0,'11111222,11111222,99999999' 
TABS,ioos:station:wmo:42045:1,2017-09-01T12:30:00Z,26.2168,-96.4998,2.0,65.23644566,34.7119864,-99999.0,'11111222,11111222,99999999' 
TABS,ioos:station:wmo:42045:1,2017-09-01T13:00:00Z,26.2168,-96.4998,2.0,59.04798743,33.67546288,-99999.0,'11111222,11111222,99999999' 
TABS,ioos:station:wmo:42045:1,2017-09-01T13:30:00Z,26.2168,-96.4998,2.0,53.29504611,30.5841266,-99999.0,'11111222,11111222,99999999' 
TABS,ioos:station:wmo:42045:1,2017-09-01T14:00:00Z,26.2168,-96.4998,2.0,56.68341954,27.23635805,-99999.0,'11111222,11111222,99999999' 
TABS,ioos:station:wmo:42045:1,2017-09-01T14:30:00Z,26.2168,-96.4998,2.0,59.39235719,21.25079998,-99999.0,'11111222,11111222,99999999' 
TABS,ioos:station:wmo:42045:1,2017-09-01T15:00:00Z,26.2168,-96.4998,2.0,59.1025065,19.29874866,-99999.0,'11111222,11111222,99999999' 
TABS,ioos:station:wmo:42045:1,2017-09-01T15:30:00Z,26.2168,-96.4998,2.0,65.44172592,26.94772903,-99999.0,'11111222,11111222,99999999' 
TABS,ioos:station:wmo:42045:1,2017-09-01T16:00:00Z,26.2168,-96.4998,2.0,51.38403685,38.85604329,-99999.0,'11111222,11111222,99999999' 
TABS,ioos:station:wmo:42045:1,2017-09-01T16:30:00Z,26.2168,-96.4998,2.0,51.10558302,37.36332426,-99999.0,'11111222,11111222,99999999' 
TABS,ioos:station:wmo:42045:1,2017-09-01T17:00:00Z,26.2168,-96.4998,2.0,48.42095752,36.73601503,-99999.0,'11111222,11111222,99999999' 
TABS,ioos:station:wmo:42045:1,2017-09-01T17:30:00Z,26.2168,-96.4998,2.0,46.30150732,33.62452974,-99999.0,'11111222,11111222,99999999' 
TABS,ioos:station:wmo:42045:1,2017-09-01T18:00:00Z,26.2168,-96.4998,2.0,45.06167371,32.90169752,-99999.0,'11111222,11111222,99999999' 
TABS,ioos:station:wmo:42045:1,2017-09-01T18:30:00Z,26.2168,-96.4998,2.0,43.50042155,30.26039326,-99999.0,'11111222,11111222,99999999' 
TABS,ioos:station:wmo:42045:1,2017-09-01T19:00:00Z,26.2168,-96.4998,2.0,33.5462406,26.49256499,-99999.0,'11111222,11111222,99999999' 
TABS,ioos:station:wmo:42045:1,2017-09-01T19:30:00Z,26.2168,-96.4998,2.0,30.55862376,25.94323997,-99999.0,'11111222,11111222,99999999' 
TABS,ioos:station:wmo:42045:1,2017-09-01T20:00:00Z,26.2168,-96.4998,2.0,20.05100447,26.01691757,-99999.0,'11111222,11111222,99999999' 
TABS,ioos:station:wmo:42045:1,2017-09-01T20:30:00Z,26.2168,-96.4998,2.0,25.74405145,23.09200944,-99999.0,'11111222,11111222,99999999' 
TABS,ioos:station:wmo:42045:1,2017-09-01T21:00:00Z,26.2168,-96.4998,2.0,31.50126977,20.11423874,-99999.0,'11111222,11111222,99999999' 
TABS,ioos:station:wmo:42045:1,2017-09-01T21:30:00Z,26.2168,-96.4998,2.0,29.27243419,15.33865705,-99999.0,'11111222,11111222,99999999' 
TABS,ioos:station:wmo:42045:1,2017-09-01T22:00:00Z,26.2168,-96.4998,2.0,15.22733076,8.985460478,-99999.0,'11133222,11111222,99999999' 
TABS,ioos:station:wmo:42045:1,2017-09-01T22:30:00Z,26.2168,-96.4998,2.0,349.8771154,12.9719428,-99999.0,'11111222,11111222,99999999' 
TABS,ioos:station:wmo:42045:1,2017-09-01T23:00:00Z,26.2168,-96.4998,2.0,326.6190614,14.92165205,-99999.0,'11111222,11111222,99999999' 
TABS,ioos:station:wmo:42045:1,2017-09-01T23:30:00Z,26.2168,-96.4998,2.0,322.9245199,15.02809702,-99999.0,'11111222,11111222,99999999' 
TABS,ioos:station:wmo:42045:1,2017-09-02T00:00:00Z,26.2168,-96.4998,2.0,333.6039857,24.29274789,-99999.0,'11111222,11111222,99999999' 
TABS,ioos:station:wmo:42045:1,2017-09-02T00:30:00Z,26.2168,-96.4998,2.0,338.3643553,23.7858151,-99999.0,'11111222,11111222,99999999' 
TABS,ioos:station:wmo:42045:1,2017-09-02T01:00:00Z,26.2168,-96.4998,2.0,346.8704607,21.92311337,-99999.0,'11111222,11111222,99999999' 
TABS,ioos:station:wmo:42045:1,2017-09-02T01:30:00Z,26.2168,-96.4998,2.0,356.4807657,21.99147562,-99999.0,'11111222,11111222,99999999' 
TABS,ioos:station:wmo:42045:1,2017-09-02T02:00:00Z,26.2168,-96.4998,2.0,2.584083552,25.06548424,-99999.0,'11111222,11111222,99999999' 
TABS,ioos:station:wmo:42045:1,2017-09-02T02:30:00Z,26.2168,-96.4998,2.0,3.030001245,24.78464444,-99999.0,'11111222,11111222,99999999' 
TABS,ioos:station:wmo:42045:1,2017-09-02T03:00:00Z,26.2168,-96.4998,2.0,9.847819525,28.35782255,-99999.0,'11111222,11111222,99999999' 
TABS,ioos:station:wmo:42045:1,2017-09-02T03:30:00Z,26.2168,-96.4998,2.0,18.18439984,27.46148212,-99999.0,'11111222,11111222,99999999' 
TABS,ioos:station:wmo:42045:1,2017-09-02T04:00:00Z,26.2168,-96.4998,2.0,14.7045286,24.54384852,-99999.0,'11111222,11111222,99999999' 
TABS,ioos:station:wmo:42045:1,2017-09-02T04:30:00Z,26.2168,-96.4998,2.0,16.13953092,17.44763881,-99999.0,'11111222,11111222,99999999' 
TABS,ioos:station:wmo:42045:1,2017-09-02T05:00:00Z,26.2168,-96.4998,2.0,24.44829697,22.63998675,-99999.0,'11111222,11111222,99999999' 
TABS,ioos:station:wmo:42045:1,2017-09-02T05:30:00Z,26.2168,-96.4998,2.0,19.37407174,25.47240468,-99999.0,'11111222,11111222,99999999' 
TABS,ioos:station:wmo:42045:1,2017-09-02T06:00:00Z,26.2168,-96.4998,2.0,26.83901175,26.20254377,-99999.0,'11111222,11111222,99999999' 
TABS,ioos:station:wmo:42045:1,2017-09-02T06:30:00Z,26.2168,-96.4998,2.0,26.86861581,25.33500543,-99999.0,'11111222,11111222,99999999' 
TABS,ioos:station:wmo:42045:1,2017-09-02T07:00:00Z,26.2168,-96.4998,2.0,25.81173421,26.526532,-99999.0,'11111222,11111222,99999999' 
TABS,ioos:station:wmo:42045:1,2017-09-02T07:30:00Z,26.2168,-96.4998,2.0,19.79270495,27.22852916,-99999.0,'11111222,11111222,99999999' 
TABS,ioos:station:wmo:42045:1,2017-09-02T08:00:00Z,26.2168,-96.4998,2.0,33.83189356,28.03740716,-99999.0,'11111222,11111222,99999999' 
TABS,ioos:station:wmo:42045:1,2017-09-02T08:30:00Z,26.2168,-96.4998,2.0,39.64851264,29.87111648,-99999.0,'11111222,11111222,99999999' 
TABS,ioos:station:wmo:42045:1,2017-09-02T09:00:00Z,26.2168,-96.4998,2.0,44.56678508,33.65924539,-99999.0,'11111222,11111222,99999999' 
TABS,ioos:station:wmo:42045:1,2017-09-02T09:30:00Z,26.2168,-96.4998,2.0,44.79140121,33.00089241,-99999.0,'11111222,11111222,99999999' 
TABS,ioos:station:wmo:42045:1,2017-09-02T10:00:00Z,26.2168,-96.4998,2.0,49.03795483,32.03367135,-99999.0,'11111222,11111222,99999999' 
TABS,ioos:station:wmo:42045:1,2017-09-02T10:30:00Z,26.2168,-96.4998,2.0,49.22031575,32.38136656,-99999.0,'11111222,11111222,99999999' 
TABS,ioos:station:wmo:42045:1,2017-09-02T11:00:00Z,26.2168,-96.4998,2.0,49.81129432,32.54258134,-99999.0,'11111222,11111222,99999999' 
TABS,ioos:station:wmo:42045:1,2017-09-02T11:30:00Z,26.2168,-96.4998,2.0,51.90463214,18.23417122,-99999.0,'11111222,11111222,99999999' 
TABS,ioos:station:wmo:42045:1,2017-09-02T12:00:00Z,26.2168,-96.4998,2.0,53.08165095,37.77401355,-99999.0,'11111222,11111222,99999999' 
TABS,ioos:station:wmo:42045:1,2017-09-02T12:30:00Z,26.2168,-96.4998,2.0,53.04050958,37.05604539,-99999.0,'11111222,11111222,99999999' 
TABS,ioos:station:wmo:42045:1,2017-09-02T13:00:00Z,26.2168,-96.4998,2.0,56.21671766,35.76988957,-99999.0,'11111222,11111222,99999999' 
TABS,ioos:station:wmo:42045:1,2017-09-02T13:30:00Z,26.2168,-96.4998,2.0,58.45533928,33.48853535,-99999.0,'11111222,11111222,99999999' 
TABS,ioos:station:wmo:42045:1,2017-09-02T14:00:00Z,26.2168,-96.4998,2.0,48.91528003,32.51794889,-99999.0,'11111222,11111222,99999999' 
TABS,ioos:station:wmo:42045:1,2017-09-02T14:30:00Z,26.2168,-96.4998,2.0,45.60961038,29.24759135,-99999.0,'11111222,11111222,99999999' 
TABS,ioos:station:wmo:42045:1,2017-09-02T15:00:00Z,26.2168,-96.4998,2.0,37.83262893,37.85734275,-99999.0,'11111222,11111222,99999999' 
TABS,ioos:station:wmo:42045:1,2017-09-02T15:30:00Z,26.2168,-96.4998,2.0,37.02685264,35.07213139,-99999.0,'11111222,11111222,99999999' 
TABS,ioos:station:wmo:42045:1,2017-09-02T16:00:00Z,26.2168,-96.4998,2.0,34.42364579,32.28342299,-99999.0,'11111222,11111222,99999999' 
TABS,ioos:station:wmo:42045:1,2017-09-02T16:30:00Z,26.2168,-96.4998,2.0,34.47159014,37.42078166,-99999.0,'11111222,11111222,99999999' 
TABS,ioos:station:wmo:42045:1,2017-09-02T17:00:00Z,26.2168,-96.4998,2.0,38.99264939,41.41641824,-99999.0,'11111222,11111222,99999999' 
TABS,ioos:station:wmo:42045:1,2017-09-02T17:30:00Z,26.2168,-96.4998,2.0,36.7785821,40.10205107,-99999.0,'11111222,11111222,99999999' 
TABS,ioos:station:wmo:42045:1,2017-09-02T18:00:00Z,26.2168,-96.4998,2.0,40.16707493,41.20820913,-99999.0,'11111222,11111222,99999999' 
TABS,ioos:station:wmo:42045:1,2017-09-02T18:30:00Z,26.2168,-96.4998,2.0,39.39466924,41.40819243,-99999.0,'11111222,11111222,99999999' 
TABS,ioos:station:wmo:42045:1,2017-09-02T19:00:00Z,26.2168,-96.4998,2.0,45.14217703,39.9233716,-99999.0,'11111222,11111222,99999999' 
TABS,ioos:station:wmo:42045:1,2017-09-02T19:30:00Z,26.2168,-96.4998,2.0,53.80813621,35.83450851,-99999.0,'11111222,11111222,99999999' 
TABS,ioos:station:wmo:42045:1,2017-09-02T20:00:00Z,26.2168,-96.4998,2.0,52.70277393,32.7089101,-99999.0,'11111222,11111222,99999999' 
TABS,ioos:station:wmo:42045:1,2017-09-02T20:30:00Z,26.2168,-96.4998,2.0,56.06030309,31.18276768,-99999.0,'11111222,11111222,99999999' 
TABS,ioos:station:wmo:42045:1,2017-09-02T21:00:00Z,26.2168,-96.4998,2.0,57.80750406,34.06745368,-99999.0,'11111222,11111222,99999999' 
TABS,ioos:station:wmo:42045:1,2017-09-02T21:30:00Z,26.2168,-96.4998,2.0,50.53747501,37.00588196,-99999.0,'11111222,11111222,99999999' 
TABS,ioos:station:wmo:42045:1,2017-09-02T22:00:00Z,26.2168,-96.4998,2.0,57.89407757,36.82120313,-99999.0,'11111222,11111222,99999999' 
TABS,ioos:station:wmo:42045:1,2017-09-02T22:30:00Z,26.2168,-96.4998,2.0,51.32163296,33.58673101,-99999.0,'11111222,11111222,99999999' 
TABS,ioos:station:wmo:42045:1,2017-09-02T23:00:00Z,26.2168,-96.4998,2.0,47.66133405,37.3118386,-99999.0,'11111222,11111222,99999999' 
TABS,ioos:station:wmo:42045:1,2017-09-02T23:30:00Z,26.2168,-96.4998,2.0,56.97620967,36.25765574,-99999.0,'11111222,11111222,99999999' 
TABS,ioos:station:wmo:42045:1,2017-09-03T00:00:00Z,26.2168,-96.4998,2.0,53.73260154,33.85987153,-99999.0,'11111222,11111222,99999999' 
TABS,ioos:station:wmo:42045:1,2017-09-03T00:30:00Z,26.2168,-96.4998,2.0,46.88273893,32.07046149,-99999.0,'11111222,11111222,99999999' 
TABS,ioos:station:wmo:42045:1,2017-09-03T01:00:00Z,26.2168,-96.4998,2.0,50.84826768,26.37091201,-99999.0,'11111222,11111222,99999999' 
TABS,ioos:station:wmo:42045:1,2017-09-03T01:30:00Z,26.2168,-96.4998,2.0,39.04946361,24.34961396,-99999.0,'11111222,11111222,99999999' 
TABS,ioos:station:wmo:42045:1,2017-09-03T02:00:00Z,26.2168,-96.4998,2.0,35.7605618,22.72426016,-99999.0,'11111222,11111222,99999999' 
TABS,ioos:station:wmo:42045:1,2017-09-03T02:30:00Z,26.2168,-96.4998,2.0,30.30304653,28.40033979,-99999.0,'11111222,11111222,99999999' 
TABS,ioos:station:wmo:42045:1,2017-09-03T03:00:00Z,26.2168,-96.4998,2.0,24.84462677,23.08663033,-99999.0,'11111222,11111222,99999999' 
TABS,ioos:station:wmo:42045:1,2017-09-03T03:30:00Z,26.2168,-96.4998,2.0,6.738642982,38.60668983,-99999.0,'11111222,11111222,99999999' 
TABS,ioos:station:wmo:42045:1,2017-09-03T04:00:00Z,26.2168,-96.4998,2.0,7.714939777,43.5037665,-99999.0,'11111222,11111222,99999999' 
TABS,ioos:station:wmo:42045:1,2017-09-03T04:30:00Z,26.2168,-96.4998,2.0,15.74668671,45.507829,-99999.0,'11111222,11111222,99999999' 
TABS,ioos:station:wmo:42045:1,2017-09-03T05:00:00Z,26.2168,-96.4998,2.0,14.99359426,47.62123896,-99999.0,'11111222,11111222,99999999' 
TABS,ioos:station:wmo:42045:1,2017-09-03T05:30:00Z,26.2168,-96.4998,2.0,12.01793992,49.37208219,-99999.0,'11111222,11111222,99999999' 
TABS,ioos:station:wmo:42045:1,2017-09-03T06:00:00Z,26.2168,-96.4998,2.0,12.61237755,49.1868641,-99999.0,'11111222,11111222,99999999' 
TABS,ioos:station:wmo:42045:1,2017-09-03T06:30:00Z,26.2168,-96.4998,2.0,13.16223666,49.75712411,-99999.0,'11111222,11111222,99999999' 
TABS,ioos:station:wmo:42045:1,2017-09-03T07:00:00Z,26.2168,-96.4998,2.0,12.94800906,48.64687143,-99999.0,'11111222,11111222,99999999' 
TABS,ioos:station:wmo:42045:1,2017-09-03T07:30:00Z,26.2168,-96.4998,2.0,10.48602519,51.81532013,-99999.0,'11111222,11111222,99999999' 
TABS,ioos:station:wmo:42045:1,2017-09-03T08:00:00Z,26.2168,-96.4998,2.0,13.64015231,53.30332916,-99999.0,'11111222,11111222,99999999' 
TABS,ioos:station:wmo:42045:1,2017-09-03T08:30:00Z,26.2168,-96.4998,2.0,12.10467055,53.45855404,-99999.0,'11111222,11111222,99999999' 
TABS,ioos:station:wmo:42045:1,2017-09-03T09:00:00Z,26.2168,-96.4998,2.0,10.05576314,51.60267629,-99999.0,'11111222,11111222,99999999' 
TABS,ioos:station:wmo:42045:1,2017-09-03T09:30:00Z,26.2168,-96.4998,2.0,14.67315582,54.12516697,-99999.0,'11111222,11111222,99999999' 
TABS,ioos:station:wmo:42045:1,2017-09-03T10:00:00Z,26.2168,-96.4998,2.0,11.39253926,57.25812606,-99999.0,'11111222,11111222,99999999' 
TABS,ioos:station:wmo:42045:1,2017-09-03T10:30:00Z,26.2168,-96.4998,2.0,11.20107848,57.70923843,-99999.0,'11111222,11111222,99999999' 
TABS,ioos:station:wmo:42045:1,2017-09-03T11:00:00Z,26.2168,-96.4998,2.0,12.85827056,56.61978453,-99999.0,'11111222,11111222,99999999' 
TABS,ioos:station:wmo:42045:1,2017-09-03T11:30:00Z,26.2168,-96.4998,2.0,14.52706742,46.16592358,-99999.0,'11111222,11111222,99999999' 
TABS,ioos:station:wmo:42045:1,2017-09-03T12:00:00Z,26.2168,-96.4998,2.0,21.77600284,54.10048521,-99999.0,'11111222,11111222,99999999' 
TABS,ioos:station:wmo:42045:1,2017-09-03T12:30:00Z,26.2168,-96.4998,2.0,25.59681866,52.65797755,-99999.0,'11111222,11111222,99999999' 
TABS,ioos:station:wmo:42045:1,2017-09-03T13:00:00Z,26.2168,-96.4998,2.0,30.07111797,54.48313959,-99999.0,'11111222,11111222,99999999' 
TABS,ioos:station:wmo:42045:1,2017-09-03T13:30:00Z,26.2168,-96.4998,2.0,31.60566179,56.95825313,-99999.0,'11111222,11111222,99999999' 
TABS,ioos:station:wmo:42045:1,2017-09-03T14:00:00Z,26.2168,-96.4998,2.0,33.74232563,54.87373962,-99999.0,'11111222,11111222,99999999' 
TABS,ioos:station:wmo:42045:1,2017-09-03T14:30:00Z,26.2168,-96.4998,2.0,36.40485216,58.38392416,-99999.0,'11111222,11111222,99999999' 
TABS,ioos:station:wmo:42045:1,2017-09-03T15:00:00Z,26.2168,-96.4998,2.0,37.74415321,57.94474351,-99999.0,'11111222,11111222,99999999' 
TABS,ioos:station:wmo:42045:1,2017-09-03T15:30:00Z,26.2168,-96.4998,2.0,36.68920134,55.76827772,-99999.0,'11111222,11111222,99999999' 
TABS,ioos:station:wmo:42045:1,2017-09-03T16:00:00Z,26.2168,-96.4998,2.0,37.61533809,53.19850092,-99999.0,'11111222,11111222,99999999' 
TABS,ioos:station:wmo:42045:1,2017-09-03T16:30:00Z,26.2168,-96.4998,2.0,37.06192153,51.35428804,-99999.0,'11111222,11111222,99999999' 
TABS,ioos:station:wmo:42045:1,2017-09-03T17:00:00Z,26.2168,-96.4998,2.0,36.37120623,49.3918718,-99999.0,'11111222,11111222,99999999' 
TABS,ioos:station:wmo:42045:1,2017-09-03T17:30:00Z,26.2168,-96.4998,2.0,37.23720611,48.68499974,-99999.0,'11111222,11111222,99999999' 
TABS,ioos:station:wmo:42045:1,2017-09-03T18:00:00Z,26.2168,-96.4998,2.0,35.14488693,47.63359004,-99999.0,'11111222,11111222,99999999' 
TABS,ioos:station:wmo:42045:1,2017-09-03T18:30:00Z,26.2168,-96.4998,2.0,35.27254943,46.70415185,-99999.0,'11111222,11111222,99999999' 
TABS,ioos:station:wmo:42045:1,2017-09-03T19:00:00Z,26.2168,-96.4998,2.0,34.65321558,43.07023334,-99999.0,'11111222,11111222,99999999' 
TABS,ioos:station:wmo:42045:1,2017-09-03T19:30:00Z,26.2168,-96.4998,2.0,37.83829836,38.22745872,-99999.0,'11111222,11111222,99999999' 
TABS,ioos:station:wmo:42045:1,2017-09-03T20:00:00Z,26.2168,-96.4998,2.0,35.07990955,34.76496656,-99999.0,'11111222,11111222,99999999' 
TABS,ioos:station:wmo:42045:1,2017-09-03T20:30:00Z,26.2168,-96.4998,2.0,37.48325461,32.70187304,-99999.0,'11111222,11111222,99999999' 
TABS,ioos:station:wmo:42045:1,2017-09-03T21:00:00Z,26.2168,-96.4998,2.0,30.77217607,27.67659661,-99999.0,'11111222,11111222,99999999' 
TABS,ioos:station:wmo:42045:1,2017-09-03T21:30:00Z,26.2168,-96.4998,2.0,30.86670463,23.25352661,-99999.0,'11111222,11111222,99999999' 
TABS,ioos:station:wmo:42045:1,2017-09-03T22:00:00Z,26.2168,-96.4998,2.0,21.75115042,21.1024264,-99999.0,'11111222,11111222,99999999' 
TABS,ioos:station:wmo:42045:1,2017-09-03T22:30:00Z,26.2168,-96.4998,2.0,16.91451115,19.90089696,-99999.0,'11111222,11111222,99999999' 
TABS,ioos:station:wmo:42045:1,2017-09-03T23:00:00Z,26.2168,-96.4998,2.0,6.308942732,18.10966869,-99999.0,'11111222,11111222,99999999' 
TABS,ioos:station:wmo:42045:1,2017-09-03T23:30:00Z,26.2168,-96.4998,2.0,356.5841147,17.62131096,-99999.0,'11111222,11111222,99999999' 
TABS,ioos:station:wmo:42045:1,2017-09-04T00:00:00Z,26.2168,-96.4998,2.0,342.2470002,17.80804593,-99999.0,'11111222,11111222,99999999' 
TABS,ioos:station:wmo:42045:1,2017-09-04T00:30:00Z,26.2168,-96.4998,2.0,333.0476431,19.17248549,-99999.0,'11111222,11111222,99999999' 
TABS,ioos:station:wmo:42045:1,2017-09-04T01:00:00Z,26.2168,-96.4998,2.0,332.358914,20.95118135,-99999.0,'11111222,11111222,99999999' 
TABS,ioos:station:wmo:42045:1,2017-09-04T01:30:00Z,26.2168,-96.4998,2.0,333.3346146,25.46885353,-99999.0,'11111222,11111222,99999999' 
TABS,ioos:station:wmo:42045:1,2017-09-04T02:00:00Z,26.2168,-96.4998,2.0,331.3065986,30.22118793,-99999.0,'11111222,11111222,99999999' 
TABS,ioos:station:wmo:42045:1,2017-09-04T02:30:00Z,26.2168,-96.4998,2.0,325.545622,36.16412587,-99999.0,'11111222,11111222,99999999' 
TABS,ioos:station:wmo:42045:1,2017-09-04T03:00:00Z,26.2168,-96.4998,2.0,325.7363057,35.71893755,-99999.0,'11111222,11111222,99999999' 
TABS,ioos:station:wmo:42045:1,2017-09-04T03:30:00Z,26.2168,-96.4998,2.0,328.3797246,40.24478724,-99999.0,'11111222,11111222,99999999' 
TABS,ioos:station:wmo:42045:1,2017-09-04T04:00:00Z,26.2168,-96.4998,2.0,330.8431053,41.23503607,-99999.0,'11111222,11111222,99999999' 
TABS,ioos:station:wmo:42045:1,2017-09-04T04:30:00Z,26.2168,-96.4998,2.0,335.7093049,44.63128947,-99999.0,'11111222,11111222,99999999' 
TABS,ioos:station:wmo:42045:1,2017-09-04T05:00:00Z,26.2168,-96.4998,2.0,337.4046968,47.16000424,-99999.0,'11111222,11111222,99999999' 
TABS,ioos:station:wmo:42045:1,2017-09-04T05:30:00Z,26.2168,-96.4998,2.0,340.2402672,50.46130894,-99999.0,'11111222,11111222,99999999' 
TABS,ioos:station:wmo:42045:1,2017-09-04T06:00:00Z,26.2168,-96.4998,2.0,344.8566989,55.84940644,-99999.0,'11111222,11111222,99999999' 
TABS,ioos:station:wmo:42045:1,2017-09-04T06:30:00Z,26.2168,-96.4998,2.0,344.5587192,53.10702119,-99999.0,'11111222,11111222,99999999' 
TABS,ioos:station:wmo:42045:1,2017-09-04T07:00:00Z,26.2168,-96.4998,2.0,345.1209009,56.7012663,-99999.0,'11111222,11111222,99999999' 
TABS,ioos:station:wmo:42045:1,2017-09-04T07:30:00Z,26.2168,-96.4998,2.0,345.2780792,59.96880522,-99999.0,'11111222,11111222,99999999' 
TABS,ioos:station:wmo:42045:1,2017-09-04T08:00:00Z,26.2168,-96.4998,2.0,347.0143179,59.27596477,-99999.0,'11111222,11111222,99999999' 
TABS,ioos:station:wmo:42045:1,2017-09-04T08:30:00Z,26.2168,-96.4998,2.0,346.8219627,62.19795817,-99999.0,'11111222,11111222,99999999' 
TABS,ioos:station:wmo:42045:1,2017-09-04T09:00:00Z,26.2168,-96.4998,2.0,348.3531925,63.99772496,-99999.0,'11111222,11111222,99999999' 
TABS,ioos:station:wmo:42045:1,2017-09-04T09:30:00Z,26.2168,-96.4998,2.0,351.2586615,66.391208,-99999.0,'11111222,11111222,99999999' 
TABS,ioos:station:wmo:42045:1,2017-09-04T10:00:00Z,26.2168,-96.4998,2.0,351.9270245,69.78157422,-99999.0,'11111222,11111222,99999999' 
TABS,ioos:station:wmo:42045:1,2017-09-04T10:30:00Z,26.2168,-96.4998,2.0,352.4547337,73.18370447,-99999.0,'11111222,11111222,99999999' 
TABS,ioos:station:wmo:42045:1,2017-09-04T11:00:00Z,26.2168,-96.4998,2.0,352.9678525,74.4097749,-99999.0,'11111222,11111222,99999999' 
TABS,ioos:station:wmo:42045:1,2017-09-04T11:30:00Z,26.2168,-96.4998,2.0,355.5375584,53.59247895,-99999.0,'11111222,11111222,99999999' 
TABS,ioos:station:wmo:42045:1,2017-09-04T12:00:00Z,26.2168,-96.4998,2.0,356.8561445,78.2177352,-99999.0,'11111222,11111222,99999999' 
TABS,ioos:station:wmo:42045:1,2017-09-04T12:30:00Z,26.2168,-96.4998,2.0,356.9711469,81.37369108,-99999.0,'11111222,11111222,99999999' 
TABS,ioos:station:wmo:42045:1,2017-09-04T13:00:00Z,26.2168,-96.4998,2.0,358.1906101,83.60169376,-99999.0,'11111222,11111222,99999999' 
TABS,ioos:station:wmo:42045:1,2017-09-04T13:30:00Z,26.2168,-96.4998,2.0,2.526423113,82.81047881,-99999.0,'11111222,11111222,99999999' 
TABS,ioos:station:wmo:42045:1,2017-09-04T14:00:00Z,26.2168,-96.4998,2.0,3.672465539,86.80823982,-99999.0,'11111222,11111222,99999999' 
TABS,ioos:station:wmo:42045:1,2017-09-04T14:30:00Z,26.2168,-96.4998,2.0,4.579022187,88.56265183,-99999.0,'11111222,11111222,99999999' 
TABS,ioos:station:wmo:42045:1,2017-09-04T15:00:00Z,26.2168,-96.4998,2.0,6.018147769,90.51884058,-99999.0,'11111222,11111222,99999999' 
TABS,ioos:station:wmo:42045:1,2017-09-04T15:30:00Z,26.2168,-96.4998,2.0,8.90657249,93.52769857,-99999.0,'11111222,11111222,99999999' 
TABS,ioos:station:wmo:42045:1,2017-09-04T16:00:00Z,26.2168,-96.4998,2.0,10.97587592,94.80415286,-99999.0,'11111222,11111222,99999999' 